Location: Unspecified
(0.0000°N, 0.0000°E)
Time: 11:16:02
(UTC+00:00)

Courier 1B Rocket - Pass Details

Date: 22 November 2019
Orbit: 920 x 1202 km, 28.2° (Epoch: 13 December)

Event Time Altitude Azimuth Distance (km) Brightness Sun altitude
Rises 11:18:40 0° 265° (W) 3,554 7.9 68.8°
Reaches altitude 10° 11:21:39 10° 277° (W) 2,626 7.3 69.0°
Maximum altitude 11:26:53 27° 333° (NNW) 1,733 6.5 69.3°
Drops below altitude 10° 11:32:20 10° 29° (NNE) 2,737 7.3 69.6°
Sets 11:35:31 0° 41° (NE) 3,733 7.9 69.7°
